Location: Cisewo
(53.3833°N, 14.9000°E)
Time: 13:38:37
(UTC+00:00)

ATLAS 3B R/B - Pass Details

Date: 18 April 2021
Orbit: 1006 x 1189 km, 63.8° (Epoch: 21 April)

Event Time Altitude Azimuth Distance (km) Brightness Sun altitude
Rises 20:39:34 0° 311° (NW) 3,894 7.1 -18.9°
Reaches altitude 10° 20:42:44 10° 298° (WNW) 2,965 6.0 -19.2°
Maximum altitude 20:48:03 24° 248° (WSW) 2,168 4.4 -19.7°
Enters shadow 20:53:12 11° 201° (SSW) 2,966 4.7 -20.1°
